Regional Weather Roundup
Issued by NWS

Home | Current Version | Previous Version | Graphics & Text | Print | Product List | Glossary On
Versions: 1 2 3 4 5 6 7 8 9 10 11 12 13 14 15 16 17 18 19 20 21 22 23 24 25 26 27 28 29 30 31 32 33 34 35 36 37 38 39 40 41 42 43 44 45 46 47 48 49 50
000
ASUS43 KOAX 292310
RWRNE

WEATHER ROUNDUP FOR NEBRASKA
NATIONAL WEATHER SERVICE OMAHA NE
600 PM CDT WED MAR 29 2017

NOTES: SATELLITE DATA IS BEING USED TO AUGMENT CLOUD COVER ABOVE
       12000 FEET.
       "FAIR" INDICATES FEW OR NO CLOUDS BELOW 12,000 FEET WITH NO
       SIGNIFICANT WEATHER AND/OR OBSTRUCTIONS TO VISIBILITY.

  * THESE STATIONS DO NOT REPORT WEATHER SUCH AS RAIN...SNOW OR FOG.

NEZ001>004-019>022-054>056-300000-
NEBRASKA PANHANDLE

CITY           SKY/WX    TMP DP  RH WIND       PRES   REMARKS
SCOTTSBLUFF    MOSUNNY   59  37  44 N14       29.94F
ALLIANCE       PTSUNNY   53  37  54 NE15      29.96F
CHADRON        PTSUNNY   57  39  51 NE13      29.95F
KIMBALL        CLOUDY    54  39  56 NE12      29.97S
SIDNEY         CLOUDY    52  37  56 NE20G26   29.96F
$$

NEZ057>060-069>072-079>082-300000-
SOUTHWEST NEBRASKA

CITY           SKY/WX    TMP DP  RH WIND       PRES   REMARKS
NORTH PLATTE   CLOUDY    47  38  71 N18       29.94S
IMPERIAL       CLOUDY    47  38  71 N15       29.95S
LEXINGTON      LGT RAIN  43  40  89 NE17G24   29.90S
MCCOOK         CLOUDY    45  41  86 N17       29.90S
OGALLALA       CLOUDY    50  38  64 NE13      29.96R
$$

NEZ005>010-023>029-035>040-094-300000-
NORTH CENTRAL NEBRASKA

CITY           SKY/WX    TMP DP  RH WIND       PRES   REMARKS
VALENTINE      CLOUDY    50  36  58 E17       29.99S
AINSWORTH      CLOUDY    45  39  79 NE17      29.99R
BROKEN BOW     CLOUDY    43  40  89 N18G26    29.92S
O`NEILL        CLOUDY    43  39  87 NE21      29.97F
ORD            LGT RAIN  42  38  85 NE16      29.92S FOG
THEDFORD       CLOUDY    47  39  74 NE15      29.97R
$$

NEZ041-046>049-061>064-073>077-083>087-300000-
SOUTH CENTRAL NEBRASKA

CITY           SKY/WX    TMP DP  RH WIND       PRES   REMARKS
GRAND ISLAND   LGT RAIN  41  41 100 NE24G32   29.87R
AURORA         LGT RAIN  41  40  97 NE22G32   29.84S
HASTINGS       LGT RAIN  43  41  93 NE24G35   29.84R
HEBRON         LGT RAIN  42  40  93 NE22G28   29.78S
HOLDREGE       RAIN      39  37  92 N23G31    29.86S WCI  28
KEARNEY *      CLOUDY    39  36  87 N22       29.87S WCI  29
YORK           LGT RAIN  41  41 100 NE23      29.84S
$$

NEZ011>018-030>034-042>045-300000-
NORTHEAST NEBRASKA

CITY           SKY/WX    TMP DP  RH WIND       PRES   REMARKS
NORFOLK        LGT RAIN  41  38  89 NE18      29.91F
ALBION         LGT RAIN  43  40  88 NE15G21   29.91S
BLAIR          LGT RAIN  43  41  95 NE24G31   29.84S
FREMONT        LGT RAIN  43  42  97 NE14G21   29.87F
TEKAMAH        LGT RAIN  44  40  85 NE24G32   29.90S
WAYNE          LGT RAIN  41  41  97 E22G31    29.94F
$$

NEZ050>053-065>068-078-088>093-300000-
SOUTHEAST NEBRASKA

CITY           SKY/WX    TMP DP  RH WIND       PRES   REMARKS
LINCOLN        LGT RAIN  43  42  97 NE18      29.82F FOG
OMAHA EPPLEY   LGT RAIN  44  39  82 NE23G30   29.86F FOG
BEATRICE       CLOUDY    43  42  98 NE20G31   29.76F
FALLS CITY     CLOUDY    48  47  96 N9        29.72S
NEBRASKA CITY  RAIN      43  43 100 NE21G26   29.75F
PLATTSMOUTH    LGT RAIN  43  40  90 N15G24    29.81F
$$

NEZ044-045-051>053-067-300000-
OMAHA AREA

CITY           SKY/WX    TMP DP  RH WIND       PRES   REMARKS
OMAHA EPPLEY   LGT RAIN  44  39  82 NE23G30   29.86F FOG
BLAIR          LGT RAIN  43  41  95 NE24G31   29.84S
FREMONT        LGT RAIN  43  42  97 NE14G21   29.87F
MILLARD        LGT RAIN  45  42  91 NE5G20    29.84F
OFFUTT AFB     LGT RAIN  43  41  92 NE20G28   29.82F FOG
PLATTSMOUTH    LGT RAIN  43  40  90 N15G24    29.81F
WAHOO          DRIZZLE   43  41  94 NE20G26   29.85R
$$



USA.gov is the U.S. government's official web portal to all federal, state and local government web resources and services.